Regional Weather Roundup
Issued by NWS

Home | Current Version | Previous Version | Text Only | Print | Product List | Glossary Off
Versions: 1 2 3 4 5 6 7 8 9 10 11 12 13 14 15 16 17 18 19 20 21 22 23 24 25 26 27 28 29 30 31 32 33 34 35 36 37 38 39 40 41 42 43 44 45 46 47

000
ASUS45 KTFX 291610
RWRMT
MONTANA REGIONAL WEATHER ROUNDUP
NATIONAL WEATHER SERVICE GREAT FALLS MT
1000 AM MDT MON JUN 29 2015

NOTE: "FAIR" INDICATES FEW OR NO CLOUDS BELOW 12000 FEET WITH NO
SIGNIFICANT WEATHER AND/OR OBSTRUCTIONS TO VISIBILITY.

MTZ001>007-043-291700-
WEST OF THE DIVIDE

CITY           SKY/WX    TMP DP  RH WIND       PRES   REMARKS
KALISPELL      CLOUDY    80  53  39 NE12      30.02F
MISSOULA       PTSUNNY   77  51  40 NW6       30.08R
BUTTE          MOSUNNY   81  47  30 CALM      30.22F
MULLAN PASS    CLOUDY    70  51  51 N6        30.24R
DEER LODGE       N/A     81  52  36 CALM      30.18F
EUREKA           N/A     75  55  50 NW3       30.04S
HAMILTON         N/A     81  54  39 S3        30.07F
PLAINS           N/A     74  57  55 CALM      30.03R
RONAN            N/A     80  62  54 N5        30.09R
THOMPSON FALLS   N/A     75  56  51 S7        30.05F
$$

MTZ008-052>055-291700-
SOUTHWEST MONTANA

CITY           SKY/WX    TMP DP  RH WIND       PRES   REMARKS
BOZEMAN        SUNNY     81  50  33 N3        30.16F
DILLON         MOSUNNY   75  53  46 W5        30.20F
W YELLOWSTONE  SUNNY     72  48  43 N3        30.35F
THREE FORKS      N/A     80  64  58 E1        30.13F
TWIN BRIDGES     N/A     75  50  41 S2        30.16F
$$

MTZ009-010-012-014-046-048-049-054-291700-
EAST SLOPES AND CENTRAL MONTANA

CITY           SKY/WX    TMP DP  RH WIND       PRES   REMARKS
CUT BANK       PTSUNNY   79  49  34 SE14      30.11S
GREAT FALLS    SUNNY     79  49  34 SW5       30.09F
MALMSTROM AFB  SUNNY     79  50  36 S7        30.09F
HELENA         MOSUNNY   81  49  32 CALM      30.12S
CONRAD           N/A     77  64  63 NE3       30.11F
$$

MTZ011-013-016-021-045-047-050-051-291700-
NORTH CENTRAL MONTANA

CITY           SKY/WX    TMP DP  RH WIND       PRES   REMARKS
HAVRE          SUNNY     88  51  28 E14       30.05F
LEWISTOWN      MOSUNNY   86  53  32 E5        30.15F
CHINOOK          N/A     84  54  34 SE7       30.05F
FORT BENTON      N/A     82  52  34 CALM      30.07F
$$

MTZ017>020-022>027-061-062-291700-
NORTHEAST MONTANA

CITY           SKY/WX    TMP DP  RH WIND       PRES   REMARKS
GLASGOW        SUNNY     85  60  42 W8        30.00F
JORDAN           N/A     87  56  34 N12       30.04S
SIDNEY         SUNNY     81  64  57 SE7       30.00S
WOLF POINT     SUNNY     82  61  48 S5        29.98F
MALTA            N/A     87  53  31 N7        30.00F
PLENTYWOOD       N/A     82  63  51 SE6       29.99S
POPLAR           N/A     82  59  44 NW5       29.99S
SCOBEY           N/A     80  59  48 N7        30.00S
$$

MTZ028>42-056>058-291700-
SOUTHCENTRAL AND SOUTHEAST MONTANA

CITY           SKY/WX    TMP DP  RH WIND       PRES   REMARKS
BAKER          SUNNY     83  62  49 SW8       30.07F
BILLINGS       MOSUNNY   79  56  45 S6        30.13S
LIVINGSTON     SUNNY     81  51  35 CALM      30.18F
MILES CITY     SUNNY     84  63  49 SW7       30.04F
BIG TIMBER       N/A     77  54  44 W5        30.18F
FORSYTH          N/A     82  57  42 SW5       30.06S
LAUREL           N/A     79  54  41 S1        30.11S
ROUNDUP          N/A     84  50  30 CALM      30.03S
$$

REGIONAL REPORTS...DAKOTAS

CITY           SKY/WX    TMP DP  RH WIND       PRES   REMARKS
WILLISTON      SUNNY     83  61  47 S7        29.99F
MINOT          PTSUNNY   81  60  48 W12       29.95F
DICKINSON      MOSUNNY   82  63  52 NW3       30.02S
BEACH          FAIR      84  61  45 SW9       30.05F
CROSBY         FAIR      81  66  61 E3        29.98F
BISMARCK       SUNNY     80  62  54 W5        29.98F
GRAND FORKS    CLOUDY    73  62  68 N9        29.84S
FARGO          SUNNY     74  62  66 W12       29.84S
BUFFALO SD       N/A     82  64  54 SW6       30.01F
RAPID CITY     SUNNY     79  62  56 N10       30.09S
$$

REGIONAL REPORTS...WYOMING/IDAHO/WASHINGTON

CITY           SKY/WX    TMP DP  RH WIND       PRES   REMARKS
GILLETTE       SUNNY     78  58  49 S9        30.17S
SHERIDAN       SUNNY     85  54  34 CALM      30.16R
BUFFALO WY     SUNNY     84  49  29 N9        30.22S
CODY           SUNNY     82  46  28 CALM      30.23F
YELLOWSTONE LA   N/A     66  50  56 SE3       30.46F
IDAHO FALLS    SUNNY     83  58  42 N8        30.15S
SALMON           N/A     77  54  44 CALM      30.09F
BOISE          PTSUNNY   84  53  34 CALM      30.00S
SPOKANE        CLOUDY    82  59  45 NE7       29.94S
$$

REGIONAL REPORTS...ALBERTA

CITY           SKY/WX    TMP DP  RH WIND       PRES   REMARKS
EDMONTON       LGT RAIN  70  52  52 S12       30.10F
CALGARY        LGT RAIN  70  50  49 SE9       30.13S
LETHBRIDGE     PTSUNNY   75  59  57 SE5       30.07S
MEDICINE HAT   CLOUDY    86  55  35 E13       30.04F
WATERTON GATE    N/A     72  59  64 SW2         N/A
CARDSTON         N/A     73  64  73 N5          N/A
MILK RIVER       N/A     82  50  32 S6          N/A
ONEFOUR          N/A     86  45  23 E14         N/A
$$

REGIONAL REPORTS...SASKATCHEWAN

CITY           SKY/WX    TMP DP  RH WIND       PRES   REMARKS
SWIFT CURRENT  MOSUNNY   81  55  41 NE10      30.08S
REGINA         PTSUNNY   82  61  47 NW12      29.99F
SASKATOON      SMOKE     72  52  49 VRB2      30.06S VSB 1
CYPRESS HILLS    N/A     77  48  36 E6          N/A
VAL MARIE        N/A     84  52  32 N14         N/A
ROCKGLEN         N/A     77  59  53 NW14        N/A
ASSINIBOIA       N/A     66  57  72 NW2         N/A
$$


USA.gov is the U.S. government's official web portal to all federal, state and local government web resources and services.